Change the Weather History Date:

Thursday, March 20, 2014

  Actual Average Record
Temperature  
Mean Temperature 48 °F -  
Max Temperature 64 °F 41 °F 64 °F (2014)
Min Temperature 31 °F 32 °F 17 °F (2011)
Degree Days  
Heating Degree Days 18    
Moisture  
Dew Point 35 °F    
Average Humidity 69    
Maximum Humidity 100    
Minimum Humidity 20    
Precipitation  
Precipitation 0.00 in - - ()
Sea Level Pressure  
Sea Level Pressure 30.07 in    
Wind  
Wind Speed 5 mph ()    
Max Wind Speed 16 mph    
Max Gust Speed 28 mph    
Visibility 6.0 miles    
Events Fog    
Averages and records for this station are not official NWS values.
T = Trace of Precipitation, MM = Missing Value Source: Averaged Metar Reports

Daily Weather History Graph

Daily Weather History Graph

Search for Another Location

Airport or City:

Trip Planner

Search our weather history database for the weather conditions in past years. The results will help you decide how hot, cold, wet, or windy it might be!

Date:

Astronomy

Mar. 20, 2014 Rise Set
Actual Time 6:38 AM CET 6:47 PM CET
Civil Twilight 6:05 AM CET 7:20 PM CET
Nautical Twilight 5:27 AM CET 7:59 PM CET
Astronomical Twilight 4:47 AM CET 8:39 PM CET
Moon 11:17 PM CET (3/20) 8:10 AM CET (3/20)
Length of Visible Light 13h 14m
Length of Day
12h 09m
Waning Gibbous, 86% of the Moon is Illuminated
Mar 20
Waning Gibbous
Mar 24
Last Quarter
Mar 30
New
Apr 7
First Quarter
Apr 15
Full

Hourly Weather History & Observations

Time (CET) Temp. Windchill Dew Point Humidity Pressure Visibility Wind Dir Wind Speed Gust Speed Precip Events Conditions
12:00 AM 41 °F - 38 °F 84% 30.29 in 7 mi SW 4.5 mph - -  
12:25 AM 41.0 °F 36.4 °F 37.4 °F 87% 30.24 in 6.2 mi SW 6.9 mph - N/A   Unknown
1:00 AM 40 °F - 38 °F 88% 30.28 in 7 mi WSW 4.5 mph - -  
1:25 AM 37.4 °F 34.9 °F 35.6 °F 93% 30.21 in 6.2 mi WSW 3.5 mph - N/A   Unknown
2:00 AM 37 °F - 35 °F 92% 30.27 in 5 mi 2.2 mph - -  
2:03 AM 35.6 °F - 33.8 °F 93% 30.21 in 3.1 mi Variable 2.3 mph - N/A   Unknown
2:05 AM 35.6 °F - 33.8 °F 93% 30.21 in 2.8 mi Variable 2.3 mph - N/A   Unknown
2:06 AM 35.6 °F - 33.8 °F 93% 30.21 in - Variable 2.3 mph - N/A   Unknown
2:17 AM 35.6 °F - 33.8 °F 93% 30.21 in - Variable 2.3 mph - N/A   Unknown
2:25 AM 35.6 °F - 33.8 °F 93% 30.21 in - Variable 2.3 mph - N/A   Unknown
2:55 AM 35.6 °F - 33.8 °F 93% 30.18 in - Variable 1.2 mph - N/A   Unknown
3:00 AM 35 °F - 33 °F 92% 30.26 in 1 mi 2.2 mph - -   Mist
3:13 AM 33.8 °F - 33.8 °F 100% 30.18 in 3.1 mi Variable 1.2 mph - N/A   Unknown
3:14 AM 33.8 °F - 33.8 °F 100% 30.18 in - Variable 1.2 mph - N/A   Unknown
3:15 AM 33.8 °F - 33.8 °F 100% 30.18 in - Variable 1.2 mph - N/A   Unknown
3:18 AM 33.8 °F - 33.8 °F 100% 30.18 in - Variable 1.2 mph - N/A   Unknown
3:25 AM 35.6 °F - 33.8 °F 93% 30.18 in 1.1 mi Variable 2.3 mph - N/A   Unknown
3:41 AM 33.8 °F - 33.8 °F 100% 30.15 in 0.2 mi Variable 2.3 mph - N/A   Unknown
4:00 AM 33 °F - 33 °F 97% 30.25 in 3 mi 2.2 mph - - Fog Patches of Fog
4:03 AM 33.8 °F - 32.0 °F 93% 30.15 in 1.4 mi Variable 2.3 mph - N/A   Unknown
4:06 AM 33.8 °F - 32.0 °F 93% 30.15 in 0.6 mi Variable 2.3 mph - N/A   Unknown
4:09 AM 33.8 °F - 32.0 °F 93% 30.15 in - Variable 2.3 mph - N/A   Unknown
4:25 AM 32.0 °F - 32.0 °F 100% 30.15 in - Variable 2.3 mph - N/A   Unknown
4:43 AM 37.4 °F 32.8 °F 37.4 °F 100% 30.15 in 5.0 mi SSW 5.8 mph - N/A   Unknown
4:56 AM 37.4 °F 33.8 °F 37.4 °F 100% 30.15 in 4.3 mi SSW 4.6 mph - N/A   Unknown
5:00 AM 38 °F - 38 °F 98% 30.21 in 4 mi SSW 4.5 mph - -   Clear
5:05 AM 35.6 °F 32.8 °F 35.6 °F 100% 30.15 in - Variable 3.5 mph - N/A   Unknown
5:06 AM 33.8 °F - 33.8 °F 100% 30.15 in 1.8 mi Variable 2.3 mph - N/A   Unknown
5:08 AM 33.8 °F - 33.8 °F 100% 30.15 in 0.7 mi Variable 2.3 mph - N/A   Unknown
5:10 AM 33.8 °F - 32.0 °F 93% 30.15 in - Variable 2.3 mph - N/A   Unknown
5:20 AM 33.8 °F - 32.0 °F 93% 30.15 in 6.2 mi Variable 2.3 mph - N/A   Clear
5:25 AM 35.6 °F 32.8 °F 33.8 °F 93% 30.15 in 6.2 mi SW 3.5 mph - N/A   Clear
6:25 AM 37.4 °F 32.8 °F 37.4 °F 100% 30.12 in 6.2 mi SSW 5.8 mph - N/A   Partly Cloudy
7:00 AM 37 °F - 36 °F 97% 30.18 in 6 mi 2.2 mph - -   Clear
7:25 AM 39.2 °F - 37.4 °F 93% 30.09 in 6.2 mi Variable 1.2 mph - N/A   Partly Cloudy
8:00 AM 39 °F - 38 °F 92% 30.17 in 12 mi 2.2 mph - -   Clear
8:25 AM 44.6 °F - 41.0 °F 87% 30.09 in 6.2 mi Variable 2.3 mph - N/A   Scattered Clouds
9:00 AM 50 °F - 38 °F 53% 30.12 in 12 mi SW 4.5 mph - -   Clear
9:25 AM 51.8 °F - 35.6 °F 54% 30.09 in 6.2 mi SSW 5.8 mph - N/A   Mostly Cloudy
10:00 AM 52 °F - 33 °F 37% 30.09 in 25 mi SSW 8.9 mph - -   Clear
10:25 AM 55.4 °F - 33.8 °F 44% 30.06 in 6.2 mi SSW 11.5 mph - N/A   Mostly Cloudy
11:00 AM 57 °F - 34 °F 29% 30.05 in 31 mi SSW 11.2 mph - -   Clear
11:22 AM 57.2 °F - 32.0 °F 38% 30.06 in 6.2 mi SSW 13.8 mph - N/A   Mostly Cloudy
11:25 AM 57.2 °F - 32.0 °F 38% 30.04 in 6.2 mi South 13.8 mph - N/A   Mostly Cloudy
12:00 PM 59 °F - 30 °F 21% 30.02 in 31 mi South 15.7 mph - -   Clear
12:25 PM 59.0 °F - 30.2 °F 34% 30.04 in 6.2 mi South 15.0 mph 27.6 mph N/A   Mostly Cloudy
1:00 PM 60 °F - 32 °F 23% 29.98 in 31 mi South 13.4 mph - -   Clear
1:25 PM 60.8 °F - 32.0 °F 34% 29.98 in 6.2 mi South 11.5 mph - N/A   Mostly Cloudy
2:00 PM 63 °F - 33 °F 21% 29.92 in 31 mi South 15.7 mph - -   Clear
2:25 PM 62.6 °F - 33.8 °F 34% 29.92 in 6.2 mi South 12.7 mph 25.3 mph N/A   Scattered Clouds
3:00 PM 64 °F - 33 °F 20% 29.87 in 31 mi South 15.7 mph - -   Clear
3:25 PM 62.6 °F - 33.8 °F 34% 29.92 in 6.2 mi South 16.1 mph - N/A   Partly Cloudy
4:00 PM 63 °F - 34 °F 22% 29.86 in 31 mi SSW 13.4 mph - -   Clear
4:25 PM 62.6 °F - 35.6 °F 37% 29.89 in 6.2 mi SSW 15.0 mph - N/A   Partly Cloudy
5:00 PM 62 °F - 37 °F 27% 29.84 in 25 mi SSW 11.2 mph - -   Clear
5:25 PM 62.6 °F - 37.4 °F 39% 29.86 in 6.2 mi SSW 11.5 mph 24.2 mph N/A   Unknown
6:00 PM 61 °F - 34 °F 25% 29.83 in 22 mi SW 13.4 mph - -  
6:25 PM 59.0 °F - 33.8 °F 39% 29.86 in 6.2 mi SW 15.0 mph 27.6 mph N/A   Unknown
7:00 PM 58 °F - 35 °F 30% 29.85 in 22 mi SW 13.4 mph - -  
7:25 PM 57.2 °F - 35.6 °F 44% 29.86 in 6.2 mi SW 12.7 mph - N/A   Unknown
8:00 PM 56 °F - 37 °F 37% 29.85 in 19 mi SW 13.4 mph - -  
8:25 PM 55.4 °F - 37.4 °F 51% 29.86 in 6.2 mi SSW 10.4 mph - N/A   Unknown
9:00 PM 55 °F - 38 °F 42% 29.86 in 22 mi SSW 11.2 mph - -  
9:25 PM 55.4 °F - 37.4 °F 51% 29.86 in 6.2 mi SW 11.5 mph - N/A   Unknown
10:00 PM 54 °F - 38 °F 44% 29.84 in 16 mi SW 8.9 mph - -  
10:25 PM 53.6 °F - 39.2 °F 58% 29.83 in 6.2 mi SW 12.7 mph - N/A   Unknown
11:00 PM 54 °F - 38 °F 43% 29.83 in 19 mi SSW 11.2 mph - -  
11:25 PM 53.6 °F - 37.4 °F 54% 29.83 in 6.2 mi SSW 10.4 mph - N/A   Unknown